Vorticity
3 6 3 3 4 1 11 9 21 6 10 3 3 5 4 4 -4 -5 -10 15 -18 14 11 4 1 17 10 5 3 7 13 9 8 7 5 2 3 4 2 2 4 6 13
4 6 4 15 3 2 25 11 15 6 29 13 6 6 3 9 -21 7 -6 17 0 -30 14 31 -5 4 16 7 6 11 3 9 8 6 5 5 3 -1 3 5 6 7 12
6 9 7 9 11 4 2 7 29 1 26 18 4 12 30 1 3 31 17 16 40 30 35 -5 -7 12 5 0 2 5 7 8 7 5 4 5 4 5 4 -0 -1 7 12
9 13 10 5 4 3 8 11 9 8 7 17 6 46 9 10 12 -2 -2 7 17 16 8 0 9 4 5 9 5 5 7 8 7 5 6 7 5 5 4 -1 1 16 7
8 7 3 -2 -4 2 7 13 8 6 7 4 6 9 15 47 11 13 9 -4 8 7 9 4 9 11 8 11 2 10 8 9 9 8 7 6 7 6 5 5 13 14 2
2 3 7 7 10 8 -6 14 8 8 4 7 5 6 7 12 11 8 4 7 5 4 3 3 3 9 7 5 11 10 9 10 9 8 6 8 8 4 10 1 8 7 5
-6 5 21 10 8 12 10 12 19 13 5 9 8 7 8 9 3 6 5 0 7 8 4 4 5 1 6 14 11 8 9 9 8 7 6 5 4 7 -2 19 12 2 6
23 9 16 24 18 15 14 12 7 7 6 7 7 4 9 7 6 5 9 7 6 6 14 16 -9 -2 13 10 9 8 7 6 7 7 5 5 2 15 14 -1 1 4 5
-4 18 15 9 10 7 6 6 8 10 8 10 11 11 7 2 5 9 7 9 14 8 -3 23 -23 13 11 10 8 7 7 6 4 7 12 11 6 4 -4 7 1 5 5
7 7 11 11 12 6 8 8 6 5 3 4 4 4 6 6 8 9 6 13 14 10 -1 1 6 11 9 7 7 5 8 18 18 4 1 -3 1 3 2 7 8 7 8
-7 8 16 10 6 13 8 10 9 9 7 7 6 5 5 8 7 7 13 10 5 12 1 13 11 8 7 6 8 9 8 -2 0 -3 0 2 5 6 5 8 8 7 9
-18 6 1 9 10 12 9 14 10 12 12 11 12 13 13 11 8 14 10 36 -6 4 10 7 6 7 9 11 4 -2 1 0 3 7 6 3 3 4 9 8 9 12 17
-8 3 -3 16 7 9 5 7 6 5 6 6 6 6 7 9 10 9 5 6 8 7 8 6 6 8 8 1 2 1 4 3 3 5 4 6 4 4 8 11 17 17 13
-7 13 -20 14 -15 19 6 12 -0 7 6 4 7 9 9 9 13 2 7 10 9 6 4 5 5 1 1 3 7 7 3 5 3 2 9 5 5 9 10 16 13 13 10
16 -17 -2 10 15 5 18 -8 3 0 1 9 9 6 11 11 7 6 10 9 3 2 3 6 9 12 13 6 1 5 12 3 -1 13 11 8 13 17 18 12 9 5 7
11 12 25 -13 2 7 -1 8 3 12 11 5 13 11 4 13 8 7 3 -1 3 4 -8 5 9 11 10 9 4 6 3 12 2 11 11 14 19 16 9 8 6 6 7
11 -7 11 28 -3 -7 3 8 9 15 4 8 34 26 21 11 1 2 7 8 4 10 -5 2 12 -3 -3 3 1 6 7 10 9 13 16 14 10 6 9 6 6 7 8
-0 6 -15 13 19 17 16 17 15 11 7 9 7 -6 -6 3 9 7 5 6 6 7 6 7 7 8 7 8 7 8 12 16 10 8 10 7 7 6 8 7 7 6 8
22 38 25 15 9 3 17 6 8 5 9 15 -0 6 3 1 4 5 7 5 6 8 8 7 5 4 8 14 15 11 7 8 9 9 8 8 7 6 6 7 14 17 16
-4 -3 -1 7 9 -9 6 13 22 18 9 7 6 5 7 9 8 7 7 9 7 6 6 6 9 13 10 6 8 9 8 8 7 7 7 8 9 14 16 18 18 20 17
10 4 22 26 9 -5 11 4 0 2 5 5 6 6 8 8 9 8 6 5 4 9 13 9 6 8 9 8 7 6 6 6 8 11 13 16 18 19 17 16 15 15 18
14 19 4 13 8 4 5 4 4 5 6 7 9 8 6 7 8 10 11 13 9 4 5 8 8 6 5 6 7 9 11 14 17 19 19 18 17 17 18 19 19 19 19
-1 2 5 4 5 4 -3 11 12 12 12 9 9 10 11 12 10 6 4 4 7 7 7 5 5 6 9 12 14 17 20 19 17 17 18 20 21 20 22 23 24 27 32
5 7 7 14 15 17 16 13 7 5 9 12 12 8 4 3 5 6 8 7 5 6 8 11 13 17 21 21 19 18 18 20 22 22 23 25 27 30 34 36 36 36 34
10 11 11 11 12 11 12 12 12 9 5 4 4 5 7 7 6 5 7 9 12 15 19 22 21 18 17 18 20 22 21 21 23 29 35 36 37 35 33 34 32 34 30
15 14 15 14 12 8 5 4 4 6 7 7 6 6 6 7 10 13 17 23 23 20 18 18 19 20 21 20 20 21 27 33 36 36 38 39 38 34 33 32 30 25 22
Height
5707 5707 5708 5709 5709 5709 5709 5710 5711 5713 5716 5718 5719 5718 5718 5718 5718 5716 5716 5717 5716 5715 5716 5716 5715 5714 5711 5708 5706 5705 5703 5701 5698 5695 5691 5687 5683 5679 5675 5670 5665 5658 5651
5704 5703 5704 5704 5704 5705 5704 5704 5704 5706 5706 5708 5708 5708 5708 5709 5707 5708 5708 5706 5705 5705 5707 5706 5705 5703 5700 5698 5695 5695 5692 5691 5687 5683 5680 5675 5671 5667 5661 5655 5649 5643 5636
5698 5699 5699 5700 5700 5700 5700 5699 5698 5698 5697 5697 5699 5698 5699 5700 5699 5698 5698 5694 5690 5692 5695 5695 5694 5692 5690 5688 5687 5685 5682 5679 5675 5671 5667 5663 5659 5654 5648 5642 5634 5626 5618
5691 5692 5694 5694 5694 5694 5694 5694 5693 5692 5692 5691 5691 5688 5687 5689 5689 5690 5688 5688 5686 5686 5686 5685 5683 5683 5682 5678 5676 5673 5670 5666 5662 5658 5654 5649 5645 5641 5634 5627 5620 5613 5604
5685 5686 5686 5687 5688 5688 5687 5685 5684 5684 5684 5682 5681 5680 5678 5679 5681 5681 5679 5679 5679 5679 5679 5678 5676 5674 5672 5668 5664 5660 5656 5652 5648 5644 5640 5636 5630 5625 5619 5612 5606 5598 5589
5678 5679 5679 5678 5678 5679 5679 5678 5676 5676 5676 5675 5675 5675 5674 5673 5672 5672 5672 5670 5670 5669 5667 5666 5664 5662 5659 5655 5650 5646 5642 5638 5633 5629 5624 5620 5614 5609 5602 5595 5589 5581 5574
5669 5668 5667 5667 5668 5669 5669 5669 5670 5669 5669 5669 5668 5667 5666 5666 5665 5663 5661 5660 5659 5657 5655 5653 5651 5648 5644 5641 5637 5632 5627 5622 5618 5613 5608 5602 5596 5590 5585 5578 5570 5562 5554
5659 5658 5656 5657 5657 5657 5659 5660 5660 5660 5660 5659 5658 5657 5656 5655 5653 5652 5651 5649 5647 5645 5643 5639 5637 5634 5630 5626 5621 5616 5611 5606 5601 5596 5590 5585 5578 5571 5565 5559 5551 5542 5533
5651 5650 5647 5647 5648 5648 5648 5649 5650 5650 5650 5649 5648 5647 5646 5644 5643 5642 5640 5638 5635 5632 5629 5628 5624 5620 5616 5611 5605 5600 5595 5590 5584 5578 5571 5565 5559 5553 5546 5538 5530 5522 5513
5642 5640 5639 5638 5639 5640 5640 5640 5640 5639 5639 5638 5637 5636 5635 5633 5632 5630 5627 5624 5622 5617 5617 5614 5611 5606 5600 5595 5589 5583 5578 5572 5565 5559 5554 5547 5540 5531 5524 5516 5508 5500 5490
5631 5630 5629 5629 5629 5629 5630 5629 5628 5628 5627 5625 5625 5623 5621 5619 5617 5615 5612 5610 5609 5607 5604 5600 5595 5590 5584 5578 5572 5566 5560 5555 5549 5542 5534 5526 5518 5509 5500 5492 5484 5477 5467
5619 5619 5619 5618 5618 5618 5617 5616 5616 5614 5613 5612 5610 5608 5607 5604 5602 5601 5598 5594 5590 5590 5587 5582 5577 5572 5566 5560 5555 5549 5543 5536 5530 5522 5514 5505 5496 5487 5478 5470 5460 5451 5442
5610 5608 5607 5607 5607 5605 5604 5603 5602 5601 5599 5597 5595 5593 5591 5589 5588 5585 5585 5582 5578 5573 5568 5563 5558 5554 5548 5543 5536 5530 5524 5516 5509 5501 5493 5484 5475 5467 5456 5447 5438 5429 5421
5596 5595 5596 5595 5594 5593 5591 5589 5589 5587 5586 5583 5581 5580 5577 5574 5573 5572 5569 5564 5560 5554 5549 5545 5540 5534 5528 5522 5516 5509 5502 5495 5487 5479 5471 5463 5453 5444 5434 5425 5417 5409 5403
5580 5582 5582 5582 5581 5580 5579 5577 5576 5574 5571 5568 5566 5563 5561 5559 5558 5554 5550 5545 5541 5536 5532 5526 5520 5514 5508 5501 5494 5487 5480 5472 5465 5456 5448 5439 5430 5421 5411 5403 5395 5389 5384
5568 5568 5568 5566 5565 5565 5564 5562 5560 5558 5555 5552 5549 5546 5544 5542 5538 5535 5531 5527 5522 5517 5512 5506 5500 5493 5486 5479 5472 5465 5458 5449 5440 5432 5423 5414 5406 5398 5390 5382 5374 5367 5361
5553 5553 5552 5551 5550 5548 5547 5546 5544 5542 5539 5536 5534 5531 5528 5525 5521 5517 5513 5508 5503 5497 5491 5485 5478 5471 5464 5456 5449 5441 5433 5424 5415 5406 5398 5390 5382 5375 5368 5359 5351 5343 5336
5540 5537 5535 5535 5533 5530 5529 5528 5526 5525 5522 5519 5515 5513 5510 5506 5502 5498 5493 5488 5482 5476 5470 5463 5456 5448 5441 5433 5424 5416 5407 5398 5390 5382 5374 5365 5357 5349 5341 5333 5325 5318 5311
5521 5519 5516 5515 5514 5512 5511 5509 5507 5506 5503 5501 5498 5494 5490 5486 5481 5476 5471 5465 5459 5453 5445 5439 5431 5424 5416 5407 5399 5391 5382 5374 5365 5356 5347 5338 5329 5321 5313 5305 5298 5292 5287
5505 5504 5500 5499 5499 5498 5496 5493 5490 5488 5485 5482 5479 5474 5469 5465 5459 5453 5448 5442 5436 5429 5423 5416 5408 5400 5391 5383 5374 5365 5356 5346 5336 5327 5318 5309 5300 5291 5284 5278 5271 5266 5261
5490 5490 5486 5484 5483 5481 5479 5476 5473 5470 5466 5462 5458 5454 5449 5443 5438 5432 5426 5420 5413 5406 5399 5391 5383 5374 5365 5355 5346 5337 5327 5317 5307 5297 5288 5278 5269 5261 5253 5248 5244 5239 5235
5477 5474 5471 5469 5467 5464 5461 5458 5455 5451 5447 5442 5437 5433 5428 5423 5417 5410 5404 5397 5389 5381 5373 5364 5355 5346 5337 5327 5317 5307 5297 5286 5275 5265 5257 5248 5240 5232 5225 5219 5215 5212 5209
5461 5459 5456 5453 5449 5446 5444 5440 5435 5431 5426 5422 5416 5411 5406 5399 5393 5387 5380 5372 5364 5355 5347 5337 5328 5317 5307 5296 5285 5275 5265 5255 5245 5234 5226 5217 5208 5201 5196 5192 5188 5187 5186
5444 5441 5438 5434 5431 5427 5424 5420 5415 5411 5406 5401 5395 5389 5383 5377 5370 5362 5355 5346 5337 5328 5318 5309 5298 5287 5276 5264 5253 5243 5234 5224 5215 5205 5195 5187 5179 5171 5167 5165 5164 5164 5165
5425 5422 5419 5415 5412 5409 5405 5399 5394 5389 5384 5379 5373 5366 5359 5353 5345 5337 5328 5319 5309 5299 5289 5279 5268 5257 5247 5236 5225 5214 5203 5193 5184 5175 5166 5159 5153 5149 5147 5147 5147 5149 5151
5407 5403 5400 5396 5393 5388 5384 5380 5374 5368 5362 5357 5350 5343 5336 5328 5319 5310 5301 5291 5280 5271 5261 5252 5242 5231 5221 5209 5199 5188 5177 5167 5158 5151 5144 5138 5135 5133 5134 5135 5137 5139 5142